World > North America > United States > South Dakota > Bemis  

Bemis, SD Hourly Weather Updates

Feedback E-mail the Weather

Quick Clicks

Bemis, SD Weather Maps

°F °C°F °C
Bemis Weather Map
UTC Time: 6/13/2024, 21:17
Your Time:

Bemis, SD Regional Weather

Expires:202406132200;;964331
ASUS43 KFSD 132110
RWRSD 

WEATHER ROUNDUP FOR SOUTH DAKOTA
NATIONAL WEATHER SERVICE SIOUX FALLS SD
400 PM CDT THU JUN 13 2024

NOTE: "FAIR" INDICATES FEW OR NO CLOUDS BELOW 12,000 FEET WITH NO
SIGNIFICANT WEATHER AND/OR OBSTRUCTIONS TO VISIBILITY.



SDZ017-020-022-023-036>040-048>070-132200-
SOUTHEAST SOUTH DAKOTA
  
CITY           SKY/WX    TMP DP  RH WIND       PRES   REMARKS
SIOUX FALLS    PTSUNNY   82  52  35 N13       29.97R TC  28           
HURON          SUNNY     84  45  25 W7        29.98R TC  29           
CHAMBERLAIN    SUNNY     84  44  24 N9G16     30.01S TC  29           
MADISON          N/A     79  55  44 NW12G18   29.98R TC  26           
MITCHELL       SUNNY     83  53  35 N9        29.98S TC  28           
YANKTON          N/A     86  43  22 N10G20    29.97R TC  30           
$$
 
ABBREVIATIONS USED IN REMARKS
   TC - TEMPERATURE IN CELSIUS
  WCI - WIND CHILL INDEX
   HX - HEAT INDEX
  VSB - VISIBILITY

  

SKY/WX - Weather  TMP - Temperature  DP - Dew Point  RH - Humidity
WIND - Wind Direction/Speed PRES - Barometric Pressure VSB - Visibility
WCI - Wind Chill Index E13G22 Wind - East Wind 13 mph/Gusts of 22 mph

Trending Headlines

Trending Entertainment Headlines

Bemis Radar Loop

Use the map search tool if you want to place a location marker on the radar map...

Bemis Quick Facts

National Two Day Weather Forecast


E-mail the Bemis Weather Forecast

Voice your opinion or tell us about page issues...